PBO Station Position Time Series. Reference Frame : NAM14
Format Version,1.1.0
4-character ID,WSMN
Station name,White_Sands
Begin Date, 1996-01-01
End Date, 2012-03-11
Release Date, 2019-08-30
Reference position, 32.4071362186 North Latitude, -106.3498311567 East Longitude, 1204.05695 meters elevation,
Date, North (mm), East (mm), Vertical (mm), North Std. Deviation (mm), East Std. Deviation (mm),              Vertical Std. Deviation (mm), Quality,
1996-01-01,0.00, 0.00, 0.00, 2.96, 2.84, 12.01, repro,
1996-01-02,0.07, -1.60, 2.08, 2.91, 2.80, 12.16, repro,
1996-01-03,1.18, 0.54, 15.43, 2.87, 2.72, 11.59, repro,
1996-01-04,0.42, 1.75, 12.30, 2.99, 2.79, 12.06, repro,
1996-01-05,2.10, -1.18, 10.96, 3.05, 2.89, 12.48, repro,
1996-01-06,0.43, -3.00, -5.42, 2.82, 2.68, 11.73, repro,
1996-01-07,0.97, 0.96, -0.93, 2.75, 2.63, 11.66, repro,
1996-01-08,1.18, -0.27, 2.31, 3.06, 2.96, 13.02, repro,
1996-01-09,1.66, -0.32, -12.05, 2.85, 2.71, 12.33, repro,
1996-01-10,2.39, 0.24, 5.37, 2.94, 2.85, 12.21, repro,
1996-01-11,3.57, -1.21, -0.19, 2.85, 2.70, 11.78, repro,
1996-01-12,1.63, -0.09, 3.17, 2.97, 2.89, 12.21, repro,
1996-01-13,-1.09, -0.43, -1.37, 2.71, 2.61, 11.31, repro,
1996-01-14,1.43, -3.09, -0.16, 2.83, 2.72, 12.15, repro,
1996-01-15,0.03, -1.15, -7.26, 2.76, 2.62, 11.80, repro,
1996-01-16,1.67, 0.64, 19.29, 3.40, 3.61, 15.48, repro,
1996-01-17,-0.04, 12.51, 11.48, 9.76, 18.34, 26.25, repro,
1996-01-18,-2.38, 8.55, 38.94, 9.42, 19.88, 28.52, repro,
1996-01-19,0.44, 3.70, -8.38, 10.02, 19.12, 27.42, repro,
1996-01-20,0.33, 7.31, 0.14, 9.07, 18.96, 27.05, repro,
1996-01-21,9.66, -1.80, -4.20, 9.61, 19.15, 25.64, repro,
1996-01-22,0.20, 4.73, -0.16, 9.16, 18.86, 26.97, repro,
1996-01-23,-3.35, 7.95, 26.40, 9.65, 19.38, 26.24, repro,
1996-01-24,-0.22, -7.32, -9.54, 9.96, 21.43, 28.59, repro,
1996-01-25,-3.66, 11.63, 16.78, 10.08, 20.93, 30.51, repro,
1996-01-26,4.29, 1.68, 17.99, 10.36, 19.77, 30.94, repro,
1996-01-27,7.16, 9.24, -8.73, 9.21, 17.56, 24.02, repro,
1996-01-28,1.67, 11.30, -7.78, 9.53, 19.45, 26.12, repro,
1996-01-29,1.77, 0.91, 26.35, 8.97, 18.47, 25.10, repro,
1996-01-30,-0.85, 10.40, 22.21, 9.42, 17.69, 26.46, repro,
1996-01-31,-2.08, 13.55, 23.70, 8.97, 17.50, 25.94, repro,
1996-02-01,5.68, 2.06, 30.69, 9.69, 19.07, 26.46, repro,
1996-02-02,0.85, 1.79, -6.89, 9.35, 18.88, 27.52, repro,
1996-02-03,2.90, 3.52, 0.37, 9.30, 19.58, 24.69, repro,
1996-02-04,6.27, 0.66, -15.63, 9.38, 18.45, 24.86, repro,
1996-02-05,0.94, -1.23, 13.92, 9.06, 17.91, 23.99, repro,
1996-02-06,3.59, 3.84, 7.64, 9.46, 18.58, 28.02, repro,
1996-02-07,-4.37, 2.85, 4.16, 9.20, 18.24, 28.16, repro,
1996-02-08,1.55, 6.08, 10.48, 9.67, 18.38, 26.78, repro,
1996-02-09,8.08, 6.32, 10.15, 9.28, 18.23, 27.05, repro,
1996-02-10,5.12, 1.61, 5.72, 9.90, 18.85, 28.44, repro,
1996-02-11,8.23, 1.37, 19.09, 9.25, 17.96, 26.35, repro,
1996-02-12,6.99, -4.75, -6.80, 9.33, 18.21, 27.25, repro,
1996-02-13,3.68, 12.77, -39.49, 9.45, 18.13, 27.10, repro,
1996-02-14,4.81, 1.08, -9.29, 9.54, 19.51, 26.36, repro,
1996-02-15,4.05, -2.67, 3.95, 9.34, 18.22, 27.94, repro,
1996-02-16,9.42, 4.60, 0.23, 9.27, 18.07, 26.58, repro,
1996-02-17,5.28, 2.54, -7.93, 10.12, 20.51, 28.17, repro,
1996-02-18,6.35, -0.64, 4.52, 9.30, 18.03, 25.95, repro,
1996-02-19,-1.68, 11.37, -2.30, 9.22, 18.03, 27.29, repro,
1996-02-20,-2.79, 8.98, 41.81, 9.18, 17.75, 25.51, repro,
1996-02-21,6.89, -11.14, 19.68, 10.06, 20.03, 28.00, repro,
1996-02-22,6.90, 1.57, -1.36, 9.18, 18.02, 28.26, repro,
1996-02-23,6.81, 12.45, 6.62, 9.35, 18.84, 27.59, repro,
1996-02-24,1.13, 0.08, -1.15, 8.94, 17.69, 25.29, repro,
1996-02-25,-4.22, 12.05, 23.85, 8.88, 17.84, 25.60, repro,
1996-02-26,-4.91, 15.01, 8.17, 8.83, 18.62, 24.61, repro,
1996-02-27,-1.95, 0.67, -0.08, 9.26, 17.74, 26.72, repro,
1996-02-28,4.51, -6.24, 23.35, 9.35, 18.22, 27.41, repro,
1996-02-29,4.70, 9.05, 2.98, 9.28, 18.29, 26.70, repro,
1996-03-01,3.75, -3.86, 2.04, 8.98, 18.31, 26.15, repro,
1996-03-02,2.42, -0.51, 12.87, 9.52, 18.97, 28.88, repro,
1996-03-03,6.95, 6.74, 12.98, 9.36, 19.05, 29.30, repro,
1996-03-04,3.91, -0.18, 10.93, 9.08, 18.65, 25.90, repro,
1996-03-05,-0.83, 7.87, 35.74, 9.30, 18.54, 26.11, repro,
1996-03-06,1.66, 12.93, 16.20, 9.45, 18.78, 26.17, repro,
1996-03-07,3.49, 7.20, 2.59, 9.82, 20.30, 26.87, repro,
1996-03-08,4.51, 3.53, -28.42, 9.72, 19.64, 28.51, repro,
1996-03-09,3.78, 6.16, -20.56, 10.46, 19.69, 29.25, repro,
1996-03-10,7.99, 4.63, -19.42, 9.45, 19.51, 26.83, repro,
1996-03-11,6.87, 1.19, -21.77, 9.45, 18.41, 26.59, repro,
1996-03-12,6.47, -13.27, 21.56, 9.07, 18.52, 27.72, repro,
1996-03-13,6.11, 3.73, 20.53, 8.87, 17.53, 24.89, repro,
1996-03-14,4.94, 0.24, -10.90, 8.93, 17.25, 26.22, repro,
1996-03-15,4.50, -4.71, -11.71, 10.03, 19.49, 28.74, repro,
1996-03-16,6.58, 2.89, 10.23, 9.38, 18.26, 26.07, repro,
1996-03-17,8.54, 4.14, 17.82, 8.96, 17.69, 25.01, repro,
1996-03-18,4.98, 5.32, 5.92, 9.16, 17.21, 25.86, repro,
1996-03-19,-2.16, 6.59, 9.45, 9.14, 17.52, 26.13, repro,
1996-03-20,1.29, -9.90, 9.26, 9.27, 18.50, 26.58, repro,
1996-03-21,3.47, 9.62, -2.16, 9.28, 19.15, 27.02, repro,
1996-03-22,2.90, 12.80, -1.97, 10.28, 20.77, 30.01, repro,
1996-03-23,2.24, 16.28, 8.90, 9.43, 18.90, 28.05, repro,
1996-03-24,1.89, 4.56, 7.05, 9.23, 17.74, 28.61, repro,
1996-03-25,4.07, -6.49, 20.06, 8.93, 17.69, 25.70, repro,
1996-03-26,4.69, 9.32, -15.11, 9.01, 17.85, 25.21, repro,
1996-03-27,5.32, 14.56, -4.75, 8.93, 18.05, 26.31, repro,
1996-03-28,3.62, -6.79, 11.68, 8.88, 17.68, 24.67, repro,
1996-03-29,-5.03, -2.18, 5.22, 9.03, 17.35, 26.70, repro,
1996-03-30,4.26, 13.60, 5.71, 9.08, 17.57, 27.14, repro,
1996-03-31,5.26, 2.00, 15.87, 8.87, 17.66, 25.36, repro,
1996-04-01,7.33, 1.24, 12.50, 9.03, 17.92, 24.76, repro,
1996-04-02,6.68, 0.16, 6.66, 9.08, 17.30, 27.41, repro,
1996-04-03,3.10, -14.43, 23.34, 8.91, 17.00, 24.90, repro,
1996-04-04,0.62, 7.32, 9.90, 9.03, 17.48, 26.29, repro,
1996-04-05,3.36, 6.16, -1.04, 10.09, 18.67, 30.06, repro,
1996-04-06,4.78, 8.66, 3.72, 9.30, 18.41, 26.89, repro,
1996-04-07,6.58, 13.70, -3.69, 9.17, 16.96, 26.84, repro,
1996-04-08,6.96, 7.44, 5.67, 8.95, 16.95, 25.24, repro,
1996-04-09,0.58, 1.22, 15.93, 9.00, 17.43, 26.71, repro,
1996-04-10,9.77, -6.90, 8.65, 8.62, 17.03, 24.65, repro,
1996-04-11,11.76, 10.19, -0.03, 8.69, 16.89, 25.07, repro,
1996-04-12,9.48, 2.04, 4.23, 9.42, 17.43, 29.17, repro,
1996-04-13,-0.60, 9.77, 29.94, 8.72, 16.93, 24.74, repro,
1996-04-14,7.17, 0.10, -17.05, 9.31, 17.28, 26.66, repro,
1996-04-15,6.37, 1.28, -3.63, 9.71, 18.08, 26.84, repro,
1996-04-16,5.90, 1.85, 0.22, 9.13, 17.52, 25.80, repro,
1996-04-17,6.75, 5.06, 8.69, 8.77, 16.78, 24.40, repro,
1996-04-18,6.41, -2.32, 26.00, 8.75, 17.01, 26.01, repro,
1996-04-19,4.08, 4.32, 18.86, 9.17, 17.75, 25.61, repro,
1996-04-20,10.52, 5.83, 6.23, 8.96, 16.54, 26.58, repro,
1996-04-21,4.21, 7.83, 6.96, 9.21, 17.11, 25.54, repro,
1996-04-22,4.66, -2.91, 18.68, 9.56, 16.81, 26.29, repro,
1996-04-23,3.34, -2.07, 5.80, 8.52, 16.77, 23.88, repro,
1996-04-24,1.17, 8.45, -1.88, 8.83, 17.27, 25.10, repro,
1996-04-25,-1.16, 5.70, 19.96, 9.01, 17.29, 25.36, repro,
1996-04-26,8.13, -1.75, 7.69, 8.88, 17.13, 24.76, repro,
1996-04-27,6.97, -0.21, 13.70, 8.47, 16.63, 25.83, repro,
1996-04-28,3.43, 1.00, 27.10, 8.55, 17.22, 24.04, repro,
1996-04-29,2.88, -5.45, 0.86, 8.88, 17.01, 25.86, repro,
1996-04-30,7.23, 6.48, 6.06, 8.73, 16.62, 25.32, repro,
1996-05-01,1.10, 2.04, 8.07, 8.87, 17.20, 24.86, repro,
1996-05-02,8.54, -6.71, -7.22, 9.34, 17.55, 30.39, repro,
1996-05-03,8.02, -1.99, 4.20, 8.99, 17.12, 26.30, repro,
1996-05-04,4.28, 4.79, -12.75, 8.85, 18.07, 25.20, repro,
1996-05-05,8.05, -3.93, 2.13, 8.71, 16.32, 26.00, repro,
1996-05-06,7.06, -6.65, 0.88, 8.85, 16.73, 26.40, repro,
1996-05-07,9.63, -2.66, 13.42, 8.84, 16.54, 25.92, repro,
1996-05-08,9.14, -4.91, -0.45, 8.75, 16.82, 24.64, repro,
1996-05-09,3.54, -1.75, 14.31, 8.72, 16.64, 24.94, repro,
1996-05-10,2.98, -6.02, -7.33, 8.60, 17.21, 25.75, repro,
1996-05-11,10.73, -8.47, -6.18, 9.51, 17.72, 29.26, repro,
1996-05-12,9.29, 7.73, -8.97, 8.96, 17.84, 26.70, repro,
1996-05-13,10.81, 2.74, 15.85, 9.01, 17.45, 25.90, repro,
1996-05-14,10.86, 0.40, 6.14, 8.72, 17.51, 25.00, repro,
1996-05-15,4.60, 0.87, 16.00, 5.11, 5.73, 18.75, repro,
1996-05-16,5.01, -1.07, 11.21, 2.73, 2.57, 9.67, repro,
1996-05-17,5.24, -1.58, 13.78, 2.73, 2.52, 9.68, repro,
1996-05-18,7.76, -2.53, 11.87, 2.81, 2.64, 10.08, repro,
1996-05-19,2.80, -0.09, 13.70, 2.74, 2.52, 9.76, repro,
1996-05-20,6.11, -4.94, 11.13, 2.69, 2.45, 9.50, repro,
1996-05-21,4.41, -3.81, 4.15, 2.77, 2.56, 9.77, repro,
1996-05-22,6.23, -4.59, 6.77, 2.73, 2.53, 9.82, repro,
1996-05-23,4.13, -5.39, -0.62, 2.73, 2.46, 9.88, repro,
1996-05-24,2.46, -1.96, 5.12, 2.79, 2.51, 10.41, repro,
1996-05-25,5.81, 0.51, 14.03, 2.80, 2.51, 10.17, repro,
1996-05-26,5.46, 4.33, 7.27, 2.75, 2.55, 9.96, repro,
1996-05-27,5.95, 0.14, 5.78, 2.79, 2.55, 9.95, repro,
1996-05-28,4.36, 5.69, 12.84, 2.68, 2.48, 9.79, repro,
1996-05-29,5.22, 0.41, 2.43, 2.79, 2.61, 10.64, repro,
1996-05-30,4.41, 0.82, 13.92, 2.68, 2.48, 9.86, repro,
1996-05-31,3.53, -0.33, 6.01, 2.66, 2.49, 9.88, repro,
1996-06-01,3.44, -0.14, -0.88, 2.70, 2.57, 10.06, repro,
1996-06-02,1.44, 2.02, -13.55, 2.69, 2.51, 10.12, repro,
1996-06-03,4.38, -1.42, -7.02, 2.70, 2.53, 10.19, repro,
1996-06-04,4.00, 0.28, 5.46, 2.67, 2.45, 9.94, repro,
1996-06-05,5.00, -1.36, 6.29, 2.81, 2.57, 10.39, repro,
1996-06-06,5.08, -2.10, 4.58, 2.65, 2.45, 9.76, repro,
1996-06-07,4.51, -1.67, 9.41, 2.82, 2.55, 10.13, repro,
1996-06-08,4.85, -0.08, 5.17, 2.70, 2.45, 9.89, repro,
1996-06-09,3.03, -3.59, 13.19, 2.70, 2.47, 10.00, repro,
1996-06-10,5.09, -1.47, 4.96, 2.77, 2.61, 10.33, repro,
1996-06-11,5.54, -0.90, 17.24, 2.79, 2.67, 10.25, repro,
1996-06-12,5.91, -1.09, -1.43, 2.86, 2.75, 10.67, repro,
1996-06-13,5.52, 0.03, 2.15, 2.80, 2.60, 10.29, repro,
1996-06-14,3.07, 0.23, -4.36, 2.71, 2.56, 10.08, repro,
1996-06-15,1.68, -0.16, -3.27, 2.67, 2.50, 10.08, repro,
1996-06-16,5.90, -0.64, -3.70, 2.74, 2.59, 10.38, repro,
1996-06-17,3.42, -2.57, 6.22, 2.80, 2.60, 10.37, repro,
1996-06-18,5.50, -0.40, 6.94, 2.72, 2.53, 10.18, repro,
1996-06-19,3.63, -2.48, 5.88, 2.72, 2.53, 9.94, repro,
1996-06-21,-1.20, -7.56, 19.29, 9.80, 7.36, 41.79, repro,
1996-06-22,1.11, -0.56, -0.74, 2.46, 2.28, 9.47, repro,
1996-06-23,5.32, -2.16, 1.38, 2.61, 2.44, 9.90, repro,
1996-06-24,4.62, -0.82, 1.27, 2.81, 2.56, 10.39, repro,
1996-06-25,4.94, -2.13, 1.25, 2.92, 2.61, 10.59, repro,
1996-06-26,7.20, -1.97, -4.28, 2.81, 2.63, 10.45, repro,
1996-06-27,1.71, 1.74, 4.82, 2.95, 2.62, 10.78, repro,
1996-06-28,1.76, 0.70, -3.74, 2.90, 2.57, 10.51, repro,
1996-06-29,2.49, 2.02, 8.30, 2.90, 2.69, 10.51, repro,
1996-06-30,4.05, 7.45, 0.92, 5.50, 4.58, 22.94, repro,
1996-07-01,1.10, -0.82, -13.02, 2.70, 2.53, 9.95, repro,
1996-07-02,3.45, 1.52, 4.69, 2.94, 2.62, 10.82, repro,
1996-07-03,0.78, 0.62, -1.81, 2.98, 2.65, 10.83, repro,
1996-07-04,3.89, -0.44, 0.57, 2.72, 2.53, 9.86, repro,
1996-07-05,3.52, 0.57, 12.85, 2.77, 2.57, 10.09, repro,
1996-07-06,3.25, -1.46, 11.66, 2.80, 2.60, 10.39, repro,
1996-07-07,3.54, -1.72, 5.17, 2.66, 2.46, 9.79, repro,
1996-07-08,7.02, -1.72, 16.83, 2.66, 2.52, 10.05, repro,
1996-07-09,5.38, 1.12, 11.27, 2.66, 2.57, 10.21, repro,
1996-07-10,1.95, 1.34, 6.97, 2.67, 2.46, 10.04, repro,
1996-07-11,3.74, -3.23, 6.20, 2.63, 2.46, 9.97, repro,
1996-07-12,3.54, -0.60, -3.46, 2.67, 2.47, 10.12, repro,
1996-07-13,6.13, -0.60, -1.48, 2.60, 2.40, 9.72, repro,
1996-07-14,2.03, -2.28, 8.66, 2.66, 2.43, 9.86, repro,
1996-07-15,1.52, -1.01, 11.41, 2.63, 2.38, 9.81, repro,
1996-07-16,2.34, -2.01, 13.15, 2.62, 2.40, 9.89, repro,
1996-07-17,7.39, -5.22, 4.39, 2.65, 2.47, 10.17, repro,
1996-07-18,1.95, -3.48, -0.63, 2.54, 2.35, 9.61, repro,
1996-07-19,2.56, -1.80, -3.34, 2.55, 2.41, 9.79, repro,
1996-07-20,3.89, -2.53, 1.18, 2.53, 2.37, 9.65, repro,
1996-07-21,1.67, 5.11, 7.83, 4.78, 4.32, 20.28, repro,
1996-07-22,0.48, -3.37, 3.10, 2.50, 2.36, 9.72, repro,
1996-07-23,0.51, -1.41, -5.32, 2.31, 2.21, 9.43, repro,
1996-07-24,1.41, -4.76, -4.61, 2.40, 2.21, 9.35, repro,
1996-07-25,-2.76, -2.29, 6.08, 2.35, 2.23, 9.39, repro,
1996-07-26,0.50, -2.78, -14.77, 2.39, 2.29, 9.63, repro,
1996-07-27,1.33, -2.66, -3.15, 2.34, 2.28, 9.41, repro,
1996-07-28,2.18, -1.93, 1.31, 2.36, 2.21, 9.34, repro,
1996-07-29,-0.45, -2.23, -9.07, 2.34, 2.21, 9.21, repro,
1996-07-30,1.01, -2.12, 5.01, 2.32, 2.19, 9.22, repro,
1996-07-31,0.64, -3.55, -7.25, 2.34, 2.28, 9.46, repro,
1996-08-01,0.02, -3.46, -8.88, 2.39, 2.28, 9.47, repro,
1996-08-02,-0.35, -2.26, -0.29, 2.38, 2.22, 9.32, repro,
1996-08-03,-0.22, -3.97, -1.96, 2.29, 2.17, 9.09, repro,
1996-08-04,0.36, -3.82, -5.29, 2.35, 2.22, 9.39, repro,
1996-08-05,0.38, -1.55, 8.98, 2.44, 2.36, 9.76, repro,
1996-08-06,-0.81, -3.55, -5.77, 2.50, 2.37, 9.86, repro,
1996-08-07,-1.79, -0.90, 11.27, 2.42, 2.33, 9.78, repro,
1996-08-08,-2.91, -1.82, -7.83, 2.41, 2.26, 9.64, repro,
1996-08-09,2.03, -4.45, 5.83, 2.60, 2.48, 9.95, repro,
1996-08-10,2.04, -2.57, -2.19, 2.66, 2.40, 9.87, repro,
1996-08-11,-0.84, -0.54, -3.81, 2.64, 2.61, 10.31, repro,
1996-08-12,1.88, -5.85, 0.71, 2.54, 2.36, 9.63, repro,
1996-08-13,3.31, -2.20, 0.02, 2.55, 2.37, 9.65, repro,
1996-08-14,-0.60, -1.71, -2.86, 2.63, 2.36, 9.58, repro,
1996-08-15,3.66, -1.74, 6.50, 2.62, 2.52, 10.04, repro,
1996-08-16,4.07, -4.14, -0.52, 2.61, 2.50, 10.08, repro,
1996-08-17,3.83, -1.47, -5.38, 2.83, 2.65, 10.96, repro,
1996-08-19,4.85, -2.59, 4.31, 2.77, 2.53, 10.30, repro,
1996-08-20,-1.14, -2.68, -2.78, 2.75, 2.58, 10.33, repro,
1996-08-21,4.00, -2.42, 1.89, 2.78, 2.59, 10.94, repro,
1996-08-22,3.08, 0.71, 3.29, 2.58, 2.43, 9.83, repro,
1996-08-23,2.75, -1.10, 1.12, 2.54, 2.41, 9.59, repro,
1996-08-24,2.38, 0.10, -0.83, 2.72, 2.49, 10.45, repro,
1996-08-25,3.16, -1.87, -5.38, 2.61, 2.43, 10.12, repro,
1996-08-26,2.41, -3.43, 6.60, 2.62, 2.46, 9.79, repro,
1996-08-27,4.42, -0.18, -9.00, 2.81, 2.64, 10.82, repro,
1996-08-28,2.63, -0.07, 10.47, 2.54, 2.42, 9.73, repro,
1996-08-29,4.29, 0.91, -1.21, 2.90, 2.70, 11.41, repro,
1996-08-30,2.41, -1.65, 8.89, 2.81, 2.75, 11.27, repro,
1996-08-31,-0.36, -0.71, 15.06, 2.51, 2.36, 9.72, repro,
1996-09-01,3.24, -1.57, 10.84, 2.64, 2.57, 10.31, repro,
1996-09-02,2.98, -3.07, 4.27, 2.69, 2.59, 10.54, repro,
1996-09-03,-1.83, -0.94, 2.69, 2.84, 2.65, 10.82, repro,
1996-09-04,2.98, 2.69, 9.61, 2.66, 2.47, 10.00, repro,
1996-09-05,0.70, -1.07, 0.53, 2.58, 2.45, 10.02, repro,
1996-09-06,6.10, 2.19, 6.15, 2.68, 2.53, 10.05, repro,
1996-09-07,4.96, -1.96, 9.57, 2.67, 2.46, 10.03, repro,
1996-09-08,1.80, -0.93, 17.40, 2.55, 2.42, 9.93, repro,
1996-09-09,1.87, -1.67, -2.46, 2.73, 2.53, 10.72, repro,
1996-09-10,1.04, -1.16, 3.78, 2.79, 2.63, 10.62, repro,
1996-09-11,2.49, 1.55, 14.59, 2.80, 2.63, 10.99, repro,
1996-09-12,2.93, -0.44, 17.59, 2.77, 2.60, 10.96, repro,
1996-09-13,1.66, 1.16, 14.63, 2.51, 2.39, 9.67, repro,
1996-09-14,-3.07, -1.94, -2.55, 2.33, 2.25, 9.37, repro,
1996-09-15,-0.64, 2.80, 31.63, 2.71, 2.58, 10.55, repro,
1996-09-16,1.76, 1.14, 20.28, 2.65, 2.56, 10.47, repro,
1996-09-17,-0.15, 1.79, 2.16, 2.53, 2.33, 9.56, repro,
1996-09-18,0.51, 2.26, -0.24, 2.51, 2.35, 9.64, repro,
1996-09-19,0.89, -2.66, -13.40, 2.54, 2.46, 10.04, repro,
1996-09-20,0.74, 0.49, 8.86, 2.63, 2.47, 9.87, repro,
1996-09-21,1.43, 0.85, 4.70, 2.48, 2.34, 9.74, repro,
1996-09-22,4.50, -2.84, 20.33, 2.55, 2.43, 9.89, repro,
1996-09-23,3.84, 0.83, 0.94, 2.60, 2.38, 10.25, repro,
1996-09-24,2.66, -1.32, 7.52, 2.62, 2.29, 9.97, repro,
1996-09-25,0.31, -1.02, -0.13, 2.25, 2.10, 8.90, repro,
1996-09-26,-3.47, 3.95, 19.29, 2.38, 2.23, 9.56, repro,
1996-09-27,-0.38, -2.86, 10.92, 2.43, 2.32, 9.70, repro,
1996-09-28,-1.24, 0.24, 8.63, 2.35, 2.18, 9.22, repro,
1996-09-29,2.16, 1.28, 3.18, 2.52, 2.38, 9.56, repro,
1996-09-30,1.45, -0.02, 5.03, 2.50, 2.34, 9.51, repro,
1996-10-01,2.81, -1.37, 13.83, 2.67, 2.40, 10.20, repro,
1996-10-02,2.21, -0.57, 8.54, 2.47, 2.31, 9.45, repro,
1996-10-03,0.02, 3.16, 18.39, 2.46, 2.26, 9.29, repro,
1996-10-04,0.35, -1.18, 4.68, 2.54, 2.37, 9.63, repro,
1996-10-05,0.35, 0.53, 6.50, 2.52, 2.26, 9.72, repro,
1996-10-06,1.14, -1.71, -5.67, 2.54, 2.33, 9.33, repro,
1996-10-07,2.51, 0.39, 3.05, 2.50, 2.36, 9.50, repro,
1996-10-08,0.45, 0.94, 6.59, 2.50, 2.25, 9.24, repro,
1996-10-09,1.70, -1.33, 17.15, 2.57, 2.42, 9.71, repro,
1996-10-10,-0.20, -0.42, 2.95, 2.44, 2.29, 9.30, repro,
1996-10-11,1.18, -1.90, 7.11, 2.39, 2.21, 9.10, repro,
1996-10-12,1.04, -1.71, 11.50, 2.42, 2.23, 9.14, repro,
1996-10-13,1.37, -0.96, 12.46, 2.48, 2.28, 9.32, repro,
1996-10-14,0.79, -1.49, 16.08, 2.46, 2.25, 9.18, repro,
1996-10-15,1.62, -1.15, 13.03, 2.50, 2.26, 9.42, repro,
1996-10-16,-2.53, -1.72, 16.78, 2.48, 2.32, 9.67, repro,
1996-10-17,-0.59, -0.73, 21.30, 2.48, 2.29, 9.72, repro,
1996-10-18,-2.38, -1.82, 2.84, 2.22, 2.00, 8.81, repro,
1996-10-19,-1.63, 2.62, 24.42, 2.31, 2.08, 9.01, repro,
1996-10-20,1.89, 7.72, 39.91, 2.24, 2.03, 8.80, repro,
1996-10-21,2.81, 0.25, 0.12, 2.38, 2.15, 8.94, repro,
1996-10-22,-2.80, 0.43, -2.39, 2.41, 2.21, 9.18, repro,
1996-10-23,-1.06, 1.02, 11.88, 2.52, 2.33, 9.95, repro,
1996-10-24,-4.04, 0.73, 10.90, 2.29, 2.09, 9.11, repro,
1996-10-25,-0.28, -0.60, 10.08, 2.38, 2.13, 9.13, repro,
1996-10-26,-3.62, -0.23, 4.96, 2.38, 2.18, 9.03, repro,
1996-10-27,-1.26, 0.44, 2.19, 2.40, 2.16, 9.09, repro,
1996-10-28,-0.73, 2.62, 2.50, 2.41, 2.20, 9.17, repro,
1996-10-29,-3.34, 2.11, 9.11, 2.36, 2.18, 9.63, repro,
1996-10-30,-5.04, -0.57, -4.46, 2.28, 2.05, 8.84, repro,
1996-10-31,0.60, 3.82, 17.44, 2.44, 2.18, 9.11, repro,
1996-11-01,-1.18, 0.13, 7.17, 2.40, 2.15, 9.13, repro,
1996-11-02,-0.83, 1.47, 5.12, 2.50, 2.25, 9.84, repro,
1996-11-03,-2.05, 2.90, 1.46, 2.45, 2.19, 9.41, repro,
1996-11-05,-1.00, 2.11, 1.10, 2.49, 2.24, 9.47, repro,
1996-11-06,-3.21, 1.33, 10.04, 2.58, 2.28, 9.98, repro,
1996-11-07,-0.32, -2.53, 5.94, 2.54, 2.23, 9.59, repro,
1996-11-08,-2.53, -2.37, -12.19, 2.30, 2.12, 9.20, repro,
1996-11-09,-1.58, -1.72, -3.19, 2.59, 2.33, 9.91, repro,
1996-11-10,-3.99, 0.57, -3.78, 4.83, 4.38, 19.40, repro,
1996-11-11,-4.05, 0.65, 7.42, 2.43, 2.23, 9.81, repro,
1996-11-12,-1.82, 1.72, -8.99, 2.52, 2.28, 9.77, repro,
1996-11-13,-2.92, 1.88, -0.55, 2.44, 2.18, 9.30, repro,
1996-11-14,-0.50, 1.28, -2.21, 2.42, 2.21, 9.36, repro,
1996-11-15,-2.55, 4.11, 18.85, 2.45, 2.20, 9.35, repro,
1996-11-16,-1.35, -0.54, 7.57, 2.54, 2.26, 10.06, repro,
1996-11-17,-5.49, -0.78, -0.39, 4.48, 4.07, 17.16, repro,
1996-11-18,-0.95, 1.18, 5.58, 2.75, 2.38, 10.59, repro,
1996-11-19,-2.37, -0.14, 1.14, 2.62, 2.29, 10.11, repro,
1996-11-20,-1.77, 0.84, 7.94, 2.41, 2.16, 9.19, repro,
1996-11-21,1.10, 2.01, 6.01, 2.59, 2.26, 10.10, repro,
1996-11-22,-0.01, 2.53, 11.60, 2.57, 2.23, 10.02, repro,
1996-11-23,4.00, 8.42, 7.58, 2.47, 2.19, 9.37, repro,
1996-11-24,-0.29, 3.63, 2.27, 2.58, 2.29, 9.72, repro,
1996-11-25,-2.14, 1.52, -1.85, 2.53, 2.17, 9.61, repro,
1996-11-26,-0.27, 1.14, -13.68, 2.47, 2.17, 9.46, repro,
1996-11-27,-2.07, 3.25, -12.61, 2.54, 2.20, 9.49, repro,
1996-11-28,-1.43, 1.70, 1.74, 2.68, 2.37, 10.48, repro,
1996-11-29,-4.67, 5.71, 8.10, 2.68, 2.32, 10.02, repro,
1996-11-30,-0.47, 7.95, 28.34, 2.61, 2.25, 10.12, repro,
1996-12-01,-6.03, 1.59, 1.51, 4.39, 4.79, 19.38, repro,
1996-12-02,-3.42, 2.29, 1.93, 2.72, 2.46, 10.42, repro,
1996-12-03,-2.27, 2.63, 3.24, 2.51, 2.31, 9.82, repro,
1996-12-04,-3.52, 2.70, 10.79, 2.59, 2.28, 10.04, repro,
1996-12-05,-0.41, 2.48, 7.57, 2.63, 2.26, 9.97, repro,
1996-12-06,0.35, 11.78, 43.74, 2.75, 2.30, 10.40, repro,
1996-12-07,-1.29, 2.93, 12.10, 2.58, 2.25, 9.90, repro,
1996-12-08,3.92, 1.29, 1.99, 2.58, 2.30, 9.89, repro,
1996-12-09,-0.69, 1.43, 15.39, 2.70, 2.30, 10.24, repro,
1996-12-10,0.68, 7.14, 1.29, 2.73, 2.31, 10.21, repro,
1996-12-11,-0.24, 4.81, 8.84, 2.46, 2.20, 9.43, repro,
1996-12-12,-0.79, -0.49, 2.11, 2.51, 2.25, 9.42, repro,
1996-12-13,-1.17, -0.67, -4.35, 2.51, 2.24, 9.57, repro,
1996-12-14,-2.32, 0.57, 2.33, 2.49, 2.23, 9.49, repro,
1996-12-15,-2.41, 0.12, -9.20, 2.52, 2.28, 9.40, repro,
1996-12-16,-2.65, 0.38, 0.22, 2.38, 2.14, 9.18, repro,
1996-12-17,-4.55, -0.15, -9.29, 2.63, 2.30, 9.94, repro,
1996-12-18,-4.14, 1.68, -2.50, 2.47, 2.18, 9.25, repro,
1996-12-19,-2.24, 1.93, -3.85, 2.54, 2.26, 9.55, repro,
1996-12-20,-2.91, 3.60, -1.58, 2.56, 2.32, 9.68, repro,
1996-12-21,-2.40, -0.27, 1.12, 2.53, 2.21, 9.41, repro,
1996-12-22,0.32, -2.93, 1.43, 2.49, 2.20, 9.27, repro,
1996-12-23,-1.65, 5.11, 7.62, 2.51, 2.18, 9.22, repro,
1996-12-24,-2.08, -0.28, -5.04, 2.55, 2.22, 9.55, repro,
1996-12-25,0.35, 1.33, 1.91, 2.60, 2.33, 10.08, repro,
1996-12-26,-0.91, 0.78, 2.29, 2.59, 2.32, 9.64, repro,
1996-12-27,0.14, -1.77, 2.02, 2.64, 2.32, 9.93, repro,
1996-12-28,1.10, 2.98, 4.24, 2.53, 2.23, 9.42, repro,
1996-12-29,0.60, 0.80, 10.62, 2.56, 2.24, 9.52, repro,
1996-12-30,2.48, -0.68, 5.99, 2.63, 2.30, 9.84, repro,
1996-12-31,-0.15, 0.16, 1.24, 2.69, 2.37, 10.09, repro,
1997-01-01,0.47, -0.78, 3.57, 2.49, 2.25, 9.38, repro,
1997-01-02,0.37, -1.89, 2.16, 2.55, 2.44, 9.87, repro,
1997-01-03,0.65, 0.20, 17.92, 2.55, 2.38, 9.79, repro,
1997-01-04,-1.32, 1.14, 16.71, 2.59, 2.36, 9.86, repro,
1997-01-05,-1.52, 2.24, 9.00, 2.60, 2.44, 9.98, repro,
1997-01-06,-3.04, 5.17, -6.97, 2.69, 2.49, 10.09, repro,
1997-01-07,-6.57, 2.12, 0.72, 2.44, 2.24, 9.55, repro,
1997-01-08,-4.62, -0.20, 3.82, 2.35, 2.15, 9.31, repro,
1997-01-09,-5.53, -1.36, -4.14, 2.63, 2.32, 10.10, repro,
1997-01-10,-2.27, -0.38, -3.51, 2.28, 2.11, 9.23, repro,
1997-01-11,-3.94, -0.13, -2.41, 2.33, 2.11, 9.26, repro,
1997-01-12,-2.40, 1.87, -8.26, 2.43, 2.16, 9.42, repro,
1997-01-13,-5.72, 3.27, -3.00, 2.34, 2.17, 9.33, repro,
1997-01-14,-3.15, 4.06, 5.14, 2.53, 2.44, 10.06, repro,
1997-01-15,-3.25, 1.06, -8.99, 2.48, 2.27, 9.76, repro,
1997-01-16,-4.20, 1.92, -8.31, 2.54, 2.40, 10.21, repro,
1997-01-17,-5.08, 1.63, -3.77, 2.86, 2.67, 11.04, repro,
1997-01-18,-4.37, -0.33, -10.52, 2.55, 2.45, 10.08, repro,
1997-01-19,-3.80, 1.06, -0.31, 2.44, 2.27, 9.61, repro,
1997-01-20,-3.22, 0.12, -16.65, 2.30, 2.12, 9.34, repro,
1997-01-21,-3.75, 1.53, -9.66, 2.44, 2.25, 9.68, repro,
1997-01-22,-3.20, -0.47, -4.04, 2.89, 2.43, 10.85, repro,
1997-01-23,-6.33, 2.27, 10.38, 2.45, 2.21, 9.50, repro,
1997-01-24,-1.24, 0.32, 3.83, 2.57, 2.42, 9.94, repro,
1997-01-25,-2.06, -1.45, -1.16, 2.74, 2.54, 11.36, repro,
1997-01-26,-3.90, 2.44, -11.85, 2.40, 2.15, 9.48, repro,
1997-01-27,0.38, -2.38, 4.11, 3.02, 2.51, 11.84, repro,
1997-01-28,-3.38, 1.58, -12.67, 2.46, 2.19, 10.29, repro,
1997-01-29,-4.98, 1.94, -13.80, 2.41, 2.25, 10.04, repro,
1997-01-30,0.03, 0.45, -9.82, 2.44, 2.24, 9.81, repro,
1997-01-31,0.68, 0.27, -7.84, 2.41, 2.16, 9.56, repro,
1997-02-01,-3.18, -1.99, -0.23, 2.31, 2.09, 9.33, repro,
1997-02-24,-1.21, -1.30, -18.52, 2.57, 2.34, 10.10, repro,
1997-02-25,-5.29, 0.35, -9.24, 2.41, 2.21, 9.92, repro,
1997-02-26,-2.96, -2.54, 2.15, 2.46, 2.28, 10.55, repro,
1997-02-27,-3.78, -1.25, 6.00, 2.61, 2.34, 10.26, repro,
1997-02-28,-6.19, 2.72, 4.01, 2.51, 2.20, 10.36, repro,
1997-03-01,-0.44, 1.90, 4.05, 2.61, 2.36, 10.25, repro,
1997-03-02,-3.13, -0.31, -6.44, 2.52, 2.14, 10.67, repro,
1997-03-03,-2.11, -2.55, 17.01, 2.33, 2.23, 9.90, repro,
1997-03-04,-3.92, 0.06, 1.84, 2.56, 2.39, 10.88, repro,
1997-03-05,1.23, -0.50, -3.55, 2.48, 2.25, 10.19, repro,
1997-03-06,-1.22, -2.77, -4.74, 2.34, 2.22, 9.79, repro,
1997-03-07,-1.41, -1.05, -2.17, 2.27, 2.15, 9.38, repro,
1997-03-08,-0.58, -0.25, 12.60, 2.61, 2.36, 10.85, repro,
1997-03-09,1.76, -1.71, 9.98, 2.67, 2.38, 11.01, repro,
1997-03-10,1.06, -1.80, 5.03, 2.64, 2.42, 10.83, repro,
1997-03-11,-0.77, -1.68, -6.36, 2.48, 2.24, 10.49, repro,
1997-03-12,-3.25, -2.97, -7.43, 2.37, 2.20, 10.04, repro,
1997-03-13,-2.49, -1.95, -2.29, 2.43, 2.21, 10.27, repro,
1997-03-14,-3.75, -2.92, -5.81, 2.43, 2.20, 10.28, repro,
1997-03-15,-2.41, -3.52, 9.05, 2.48, 2.29, 10.08, repro,
1997-03-16,1.18, -3.36, 2.51, 2.45, 2.20, 9.48, repro,
1997-03-17,-3.16, -0.42, 3.37, 2.27, 2.08, 9.20, repro,